Regional Weather Roundup
Issued by NWS

Home | Current Version | Previous Version | Text Only | Print | Product List | Glossary On
Versions: 1 2 3 4 5 6 7 8 9 10 11 12 13 14 15 16 17 18 19 20 21 22 23 24 25 26 27 28 29 30 31 32 33 34 35 36 37 38 39 40 41 42 43 44 45 46 47 48 49 50
000
ASUS44 KOUN 311010
RWROK

WEATHER ROUNDUP FOR OKLAHOMA
NATIONAL WEATHER SERVICE NORMAN OK
500 AM CDT SUN JUL 31 2016

NOTE: "FAIR" INDICATES FEW OR NO CLOUDS BELOW 12,000 FEET WITH NO
      SIGNIFICANT WEATHER AND/OR OBSTRUCTIONS TO VISIBILITY.

OKZ001>007-009>012-014-015-017-311100-
NORTHWEST OKLAHOMA AND THE PANHANDLE

CITY           SKY/WX    TMP DP  RH WIND       PRES   REMARKS
GAGE           CLOUDY    71  63  75 S3        29.93R
GUYMON         PTCLDY    68  58  70 CALM      29.93R
ENID/WOODRING  CLEAR     72  72 100 S8        29.89S
$$

OKZ016-021>023-033>039-044-045-311100-
SOUTHWEST OKLAHOMA

CITY           SKY/WX    TMP DP  RH WIND       PRES   REMARKS
LAWTON/REGL    CLEAR     76  67  73 SE3       29.92R
LAWTON/FT SILL CLEAR     74  68  81 SE6       29.91R
FREDERICK        N/A    N/A N/A N/A MISG      29.88R
CLINTON        CLEAR     76  65  68 S12       29.93S
HOBART         CLEAR     76  65  68 S12       29.92S
ALTUS AFB      CLEAR     71  65  80 SE5       29.90S
$$

OKZ018>020-024>031-311100-
CENTRAL OKLAHOMA

CITY           SKY/WX    TMP DP  RH WIND       PRES   REMARKS
OKLAHOMA CITY  CLEAR     74  69  85 S7        29.93R
OKC/WILEY POST CLEAR     77  68  73 S14       29.92S
OKC/TINKER AFB CLEAR     75  69  82 S12       29.93R
STILLWATER     CLEAR     75  70  84 S8        29.91R
GUTHRIE        CLEAR     77  69  76 S10       29.91R
$$

OKZ008-013-054>072-311100-
NORTHEAST OKLAHOMA

CITY           SKY/WX    TMP DP  RH WIND       PRES   REMARKS
TULSA          PTCLDY    76  71  85 SE8       29.91S
TULSA/JONES    CLEAR     76  72  87 S6        29.92S
PONCA CITY     CLEAR     77  69  76 S8        29.88F
BARTLESVILLE   CLEAR     72  70  93 SE5       29.92S
MUSKOGEE       CLEAR     73  69  87 S9        29.96R
$$

OKZ032-040>043-046>053-073>077-311100-
SOUTH CENTRAL/SOUTHEAST OKLAHOMA

CITY           SKY/WX    TMP DP  RH WIND       PRES   REMARKS
ARDMORE/DWNTWN CLEAR     75  68  78 CALM      29.95R
MCALESTER      PTCLDY    77  69  76 S6        29.97R
$$





USA.gov is the U.S. government's official web portal to all federal, state and local government web resources and services.